| time (UTC) | temp C | wind direction | speed KPH | gust KPH | rain 1hr cm | rain 24hr cm | rain mn cm | humidity % | barometer mb |
| 20260504214616 | 15 | 89 | 1.6 | 9.7 | 0.00 | 0.00 | 0.00 | 75 | 1010.8 |
| 20260504213034 | 15 | 86 | 1.6 | 9.7 | 0.00 | 0.00 | 0.00 | 75 | 1010.9 |
| 20260504211505 | 16 | 75 | 3.2 | 9.7 | 0.00 | 0.00 | 0.00 | 74 | 1011.1 |
| 20260504210049 | 16 | 89 | 3.2 | 12.9 | 0.00 | 0.00 | 0.00 | 74 | 1011.2 |
| 20260504204523 | 15 | 186 | 4.8 | 17.7 | 0.00 | 0.00 | 0.00 | 76 | 1011.2 |
| 20260504203107 | 15 | 163 | 4.8 | 14.5 | 0.00 | 0.00 | 0.00 | 77 | 1011.4 |
| 20260504201529 | 15 | 158 | 4.8 | 14.5 | 0.00 | 0.00 | 0.00 | 75 | 1011.6 |
| 20260504200002 | 16 | 100 | 3.2 | 12.9 | 0.00 | 0.00 | 0.00 | 73 | 1011.8 |
| 20260504194547 | 16 | 181 | 1.6 | 12.9 | 0.00 | 0.00 | 0.00 | 73 | 1012.0 |
| 20260504193019 | 16 | 122 | 3.2 | 12.9 | 0.00 | 0.00 | 0.00 | 72 | 1012.2 |
| 20260504191604 | 16 | 80 | 3.2 | 11.3 | 0.00 | 0.00 | 0.00 | 71 | 1012.3 |
| 20260504190027 | 16 | 136 | 3.2 | 14.5 | 0.00 | 0.00 | 0.00 | 71 | 1012.4 |
| 20260504184638 | 17 | 33 | 3.2 | 11.3 | 0.00 | 0.00 | 0.00 | 71 | 1012.8 |
| 20260504183033 | 17 | 82 | 4.8 | 16.1 | 0.00 | 0.00 | 0.00 | 70 | 1012.7 |
| 20260504181507 | 17 | 217 | 3.2 | 9.7 | 0.00 | 0.00 | 0.00 | 70 | 1012.9 |
| 20260504180049 | 17 | 75 | 1.6 | 14.5 | 0.00 | 0.00 | 0.00 | 71 | 1012.9 |
| 20260504174515 | 17 | 166 | 3.2 | 11.3 | 0.00 | 0.00 | 0.00 | 68 | 1013.1 |
| 20260504173056 | 17 | 173 | 3.2 | 12.9 | 0.00 | 0.00 | 0.00 | 69 | 1013.1 |
| 20260504171522 | 17 | 186 | 3.2 | 16.1 | 0.00 | 0.00 | 0.00 | 69 | 1013.3 |
| 20260504110107 | 11 | 122 | 1.6 | 6.4 | 0.00 | 0.00 | 0.00 | 77 | 1015.7 |
| 20260504081515 | 10 | 98 | 0.0 | 8.0 | 0.00 | 0.00 | 0.00 | 71 | 1015.7 |
| 20260504044517 | 10 | 134 | 0.0 | 3.2 | 0.00 | 0.00 | 0.00 | 67 | 1015.2 |
| 20260504043106 | 10 | 150 | 0.0 | 3.2 | 0.00 | 0.00 | 0.00 | 66 | 1015.0 |
| 20260504041530 | 10 | 126 | 0.0 | 4.8 | 0.00 | 0.00 | 0.00 | 69 | 1015.1 |
| 20260504040106 | 10 | 92 | 0.0 | 1.6 | 0.00 | 0.00 | 0.00 | 67 | 1014.9 |
| 20260504034541 | 10 | 141 | 0.0 | 3.2 | 0.00 | 0.00 | 0.00 | 68 | 1014.8 |
| 20260504033019 | 10 | 113 | 0.0 | 1.6 | 0.00 | 0.00 | 0.00 | 68 | 1014.7 |
| 20260504031559 | 10 | 131 | 0.0 | 4.8 | 0.00 | 0.00 | 0.00 | 68 | 1014.7 |
| 20260504030025 | 10 | 131 | 0.0 | 1.6 | 0.00 | 0.00 | 0.00 | 68 | 1014.6 |
| 20260504024603 | 9 | 152 | 0.0 | 1.6 | 0.00 | 0.00 | 0.00 | 69 | 1014.6 |
| 20260504023031 | 9 | 214 | 0.0 | 0.0 | 0.00 | 0.00 | 0.00 | 70 | 1014.7 |
| 20260504021502 | 9 | 228 | 0.0 | 0.0 | 0.00 | 0.00 | 0.00 | 69 | 1014.6 |
| 20260504020048 | 10 | 228 | 0.0 | 0.0 | 0.00 | 0.00 | 0.00 | 69 | 1014.5 |
| 20260504014510 | 10 | 228 | 0.0 | 0.0 | 0.00 | 0.00 | 0.00 | 64 | 1014.4 |
| 20260504013105 | 10 | 288 | 0.0 | 0.0 | 0.00 | 0.00 | 0.00 | 62 | 1014.4 |
| 20260504011525 | 10 | 288 | 0.0 | 0.0 | 0.00 | 0.00 | 0.00 | 61 | 1014.3 |
| 20260504010104 | 10 | 288 | 0.0 | 0.0 | 0.00 | 0.00 | 0.00 | 61 | 1014.1 |
| 20260504004540 | 10 | 288 | 0.0 | 0.0 | 0.00 | 0.00 | 0.00 | 60 | 1013.8 |
| 20260504003108 | 10 | 285 | 0.0 | 0.0 | 0.00 | 0.00 | 0.00 | 57 | 1013.6 |
| 20260504001546 | 11 | 284 | 0.0 | 0.0 | 0.00 | 0.00 | 0.00 | 52 | 1013.4 |
| 20260504000010 | 11 | 284 | 0.0 | 0.0 | 0.00 | 0.00 | 0.00 | 52 | 1013.3 |
| 20260503234554 | 12 | 281 | 0.0 | 1.6 | 0.00 | 0.00 | 0.00 | 46 | 1013.3 |
| 20260503233029 | 13 | 348 | 0.0 | 4.8 | 0.00 | 0.00 | 0.00 | 42 | 1013.3 |
| 20260503231604 | 13 | 58 | 0.0 | 3.2 | 0.00 | 0.00 | 0.00 | 40 | 1013.1 |
| 20260503230033 | 14 | 200 | 1.6 | 8.0 | 0.00 | 0.00 | 0.00 | 39 | 1013.2 |
| 20260503224611 | 14 | 228 | 1.6 | 8.0 | 0.00 | 0.00 | 0.00 | 37 | 1013.0 |
| 20260503223039 | 14 | 310 | 1.6 | 8.0 | 0.00 | 0.00 | 0.00 | 34 | 1013.0 |
| 20260503221512 | 15 | 68 | 0.0 | 8.0 | 0.00 | 0.00 | 0.00 | 36 | 1012.9 |
| 20260503220059 | 15 | 269 | 3.2 | 11.3 | 0.00 | 0.00 | 0.00 | 34 | 1012.9 |